Watsonville, CA

8:56 AM PDT on March 25, 2017 (GMT -0700)
Watsonville Municipal

Weather History for KWVI - December, 2011

Change the Weather History Date:

Thursday, December 29, 2011

  Actual Average Record
Temperature  
Mean Temperature 53 °F 50 °F  
Max Temperature 63 °F 60 °F 73 °F (2013)
Min Temperature 43 °F 39 °F 29 °F (2006)
Degree Days  
Heating Degree Days 12    
Month to date heating degree days 458  
Since 1 July heating degree days 1110  
Cooling Degree Days 0    
Month to date cooling degree days 0  
Year to date cooling degree days 111  
Growing Degree Days 4 (Base 50)    
Moisture  
Dew Point 45 °F    
Average Humidity 75    
Maximum Humidity 93    
Minimum Humidity 56    
Precipitation  
Precipitation 0.00 in - 2.58 in (2003)
Month to date precipitation 0.05  
Year to date precipitation 22.47  
Since 1 July precipitation 4.29  
Sea Level Pressure  
Sea Level Pressure 30.18 in    
Wind  
Wind Speed 2 mph (SSW)    
Max Wind Speed 8 mph    
Max Gust Speed 14 mph    
Visibility 5 miles    
Events Fog    
T = Trace of Precipitation, MM = Missing Value Source: NWS Daily Summary

Daily Weather History Graph

Daily Weather History Graph

Search for Another Location

Airport or City:

Trip Planner

Search our weather history database for the weather conditions in past years. The results will help you decide how hot, cold, wet, or windy it might be!

Date:

Astronomy

Dec. 29, 2011 Rise Set
Actual Time 7:19 AM PST 4:58 PM PST
Civil Twilight 6:50 AM PST 5:27 PM PST
Nautical Twilight 6:18 AM PST 6:00 PM PST
Astronomical Twilight 5:46 AM PST 6:31 PM PST
Moon 10:23 AM PST (12/29) 10:32 PM PST (12/29)
Length of Visible Light 10h 37m
Length of Day
9h 39m
Waxing Crescent, 27% of the Moon is Illuminated
Dec 29
Waxing Crescent
Dec 31
First Quarter
Jan 8
Full
Jan 16
Last Quarter
Jan 22
New

Hourly Weather History & Observations

Time (PST) Temp. Windchill Dew Point Humidity Pressure Visibility Wind Dir Wind Speed Gust Speed Precip Events Conditions
12:53 AM 48.0 °F - 41.0 °F 77% 30.27 in 10.0 mi Calm Calm - N/A   Clear
1:53 AM 46.9 °F - 39.9 °F 77% 30.26 in 10.0 mi Calm Calm - N/A   Clear
2:53 AM 46.9 °F - 39.9 °F 77% 30.27 in 10.0 mi NW 3.5 mph - N/A   Clear
4:53 AM 46.9 °F - 41.0 °F 80% 30.23 in 10.0 mi NW 3.5 mph - N/A   Clear
5:53 AM 46.0 °F - 39.9 °F 79% 30.22 in 10.0 mi Calm Calm - N/A   Clear
7:53 AM 46.9 °F - 42.1 °F 83% 30.22 in 10.0 mi Calm Calm - N/A   Clear
8:53 AM 51.1 °F - 45.0 °F 80% 30.24 in 10.0 mi Calm Calm - N/A   Clear
9:53 AM 52.0 °F - 43.0 °F 71% 30.25 in 10.0 mi Calm Calm - N/A   Clear
10:53 AM 57.9 °F - 45.0 °F 62% 30.25 in 10.0 mi Calm Calm - N/A   Clear
11:53 AM 63.0 °F - 46.9 °F 56% 30.22 in 10.0 mi SSE 4.6 mph - N/A   Clear
12:53 PM 62.1 °F - 48.9 °F 62% 30.20 in 10.0 mi SSE 3.5 mph - N/A   Clear
2:53 PM 60.1 °F - 48.9 °F 67% 30.17 in 10.0 mi SSE 6.9 mph - N/A   Clear
3:53 PM 55.9 °F - 48.9 °F 77% 30.16 in 10.0 mi SE 3.5 mph - N/A   Clear
4:53 PM 52.0 °F - 48.0 °F 86% 30.16 in 10.0 mi South 3.5 mph - N/A   Clear
5:14 PM 50.0 °F - 46.4 °F 87% 30.16 in 2.0 mi South 4.6 mph - N/A   Partly Cloudy
5:16 PM 50.0 °F - 46.4 °F 87% 30.16 in 1.0 mi South 4.6 mph - N/A   Mist
5:21 PM 51.8 °F - 48.2 °F 88% 30.16 in 0.2 mi South 4.6 mph - N/A Fog Fog
5:53 PM 51.1 °F - 48.9 °F 92% 30.16 in 0.2 mi Calm Calm - N/A Fog Fog
6:53 PM 50.0 °F - 48.0 °F 93% 30.16 in 0.2 mi Calm Calm - N/A Fog Fog
7:53 PM 50.0 °F - 48.0 °F 93% 30.15 in 0.2 mi NW 3.5 mph - N/A Fog Fog
8:38 PM 48.2 °F - 46.4 °F 93% 30.15 in 0.5 mi Calm Calm - N/A Fog Fog
8:45 PM 48.2 °F - 46.4 °F 93% 30.15 in 1.5 mi Calm Calm - N/A   Mostly Cloudy
8:49 PM 48.2 °F - 46.4 °F 93% 30.15 in 3.0 mi Calm Calm - N/A   Mostly Cloudy
9:00 PM 46.4 °F - 44.6 °F 93% 30.14 in 1.5 mi Calm Calm - N/A   Scattered Clouds
9:02 PM 46.4 °F 45.2 °F 44.6 °F 93% 30.14 in 0.8 mi ENE 3.5 mph - N/A   Mist
9:13 PM 46.4 °F - 44.6 °F 93% 30.15 in 0.2 mi Calm Calm - N/A Fog Fog
9:33 PM 46.4 °F - 44.6 °F 93% 30.15 in 0.2 mi Calm Calm - N/A Fog Fog
9:53 PM 46.9 °F - 45.0 °F 93% 30.14 in 0.2 mi Calm Calm - N/A Fog Fog
10:53 PM 45.0 °F - 43.0 °F 93% 30.14 in 0.2 mi Calm Calm - 0.01 in Fog Fog
11:01 PM 44.6 °F - 42.8 °F 93% 30.14 in 1.0 mi Calm Calm - N/A   Mist
11:07 PM 44.6 °F - 42.8 °F 93% 30.14 in 4.0 mi Calm Calm - N/A   Scattered Clouds
11:53 PM 45.0 °F 42.6 °F 43.0 °F 93% 30.14 in 7.0 mi NW 4.6 mph - N/A   Clear